Location: Wanzleben
(52.0609°N, 11.4408°E)
Time: 02:30:27
(UTC+00:00)

NOSS 3-2 (A) - Pass Details

Date: 18 September 2020
Orbit: 795 x 1413 km, 63.4° (Epoch: 02 October)

Event Time Altitude Azimuth Distance (km) Brightness Sun altitude
Rises 18:08:56 0° 312° (NW) 3,837 7.8 -8.1°
Reaches altitude 10° 18:11:27 10° 315° (NW) 2,965 7.0 -8.5°
Maximum altitude 18:18:38 70° 39° (NE) 1,297 4.1 -9.5°
Enters shadow 18:26:32 11° 123° (ESE) 3,269 5.6 -10.7°
